Other Public Products
Issued by NWS Grand Forks, ND

Home | Current Version | Previous Version | Graphics & Text | Print | Product List | Glossary On
Versions: 1 2 3 4 5 6 7 8 9 10 11 12 13 14 15 16 17 18 19 20 21 22 23 24 25 26 27 28 29 30 31 32 33 34 35 36 37 38 39 40 41 42 43 44 45 46 47 48 49 50
374
FPUS83 KFGF 221210
OPUFGF
PRAIRIE TO PINES WEATHER ROUNDUP
NATIONAL WEATHER SERVICE EASTERN NORTH DAKOTA/GRAND FORKS ND
700 AM CDT FRI MAY 22 2015

 **SATELLITE DATA USED TO AUGMENT SKY COVER AT AUTOMATED STATIONS**
 *****  WEATHER ACROSS EASTERN NORTH DAKOTA  *****

CITY           SKY/WX    TMP DP  RH WIND       PRES   REMARKS
GRAND FORKS    SUNNY     43  40  89 CALM      30.16S
6HR MIN TEMP:  38; 6HR MAX TEMP:  45;

GRAND FORKS AF FAIR      46  40  81 SW3       30.17R
GRAND CITY NWS   N/A     43 N/A N/A MISG        N/A
BUXTON         NOT AVBL
DEVILS LAKE    CLEAR     46  39  76 CALM      30.16R
6HR MIN TEMP:  43; 6HR MAX TEMP:  52;

FARGO          SUNNY     45  41  86 CALM      30.19R
6HR MIN TEMP:  41; 6HR MAX TEMP:  49;

WAHPETON ARPT  SUNNY     43  39  87 SW6       30.20R
$$

 *****  WEATHER ACROSS CENTRAL AND WESTERN NORTH DAKOTA  *****

CITY           SKY/WX    TMP DP  RH WIND       PRES   REMARKS
JAMESTOWN      CLEAR     46  42  86 E5        30.18R
6HR MIN TEMP:  43; 6HR MAX TEMP:  52;

BISMARCK       CLEAR     40  38  93 CALM      30.16S
6HR MIN TEMP:  40; 6HR MAX TEMP:  53;

MINOT          CLEAR     49  36  61 CALM      30.14R
6HR MIN TEMP:  44; 6HR MAX TEMP:  54;

MINOT AFB      CLEAR     44  42  93 S3        30.13R
6HR MIN TEMP:  41; 6HR MAX TEMP:  48;

GARRISON         N/A     45  39  79 E3        30.14S
6HR MIN TEMP:  41; 6HR MAX TEMP:  52;

WILLISTON      CLEAR     41  37  86 CALM      30.13R
6HR MIN TEMP:  38; 6HR MAX TEMP:  57;

DICKINSON      CLEAR     42  33  70 E8        30.12S
6HR MIN TEMP:  38; 6HR MAX TEMP:  46;

HETTINGER      CLEAR     34  30  85 CALM      30.14S
6HR MIN TEMP:  32; 6HR MAX TEMP:  47;

$$

 *****  OTHER OBSERVATIONS NORTHEAST NORTH DAKOTA  *****

CITY           SKY/WX    TMP DP  RH WIND       PRES   REMARKS
WALHALLA       FAIR      55  36  47 SW6       30.13S
LANGDON        FAIR      46  39  76 SW9       30.16S
CAVALIER       FAIR      48  41  76 S8        30.14S
GRAFTON        FAIR      46  43  87 S5        30.17R
CANDO          FAIR      43  41  93 CALM      30.16S
FORT TOTTEN    NOT AVBL
ROLLA          FAIR      50  34  53 SW9       30.16R
RUGBY          NOT AVBL
 ***** THE ABOVE OBSERVATIONS ARE NON NWS ARE NOT QUALITY
        CONTROLLED AND MAY MIS-REPORT RAIN FOR SNOW...
$$

 *****  OTHER OBSERVATIONS SOUTHEAST NORTH DAKOTA *****

CITY           SKY/WX    TMP DP  RH WIND       PRES   REMARKS
COOPERSTOWN    NOT AVBL
VALLEY CITY    FAIR      41  41 100 CALM      30.19R
OAKES            N/A     45  45 100 NE5       30.18S
GWINNER        NOT AVBL
SHEYENNE NWR     N/A     42  40  91 CALM      29.95S
BUFFALO        NOT AVBL
WYNDMERE         N/A     46  43  87 N1          N/A
 ***** THE ABOVE OBSERVATIONS ARE NON NWS ARE NOT QUALITY
       CONTROLLED AND MAY MIS-REPORT RAIN FOR SNOW...
$$

  *****  WEATHER ACROSS NORTHERN MINNESOTA  *****

CITY           SKY/WX    TMP DP  RH WIND       PRES   REMARKS
FLAG ISLAND    MOSUNNY   48  45  87 CALM      30.15S
WARROAD        SUNNY     43  37  81 CALM      30.17S
ROSEAU         SUNNY     43  37  81 CALM      30.17S
HALLOCK        SUNNY     45  39  81 S6        30.16R
THF RVR FALLS  SUNNY     43  37  81 CALM      30.18S
6HR MIN TEMP:  39; 6HR MAX TEMP:  46;

HALSTAD        NOT AVBL
FOSSTON        SUNNY     41  37  87 CALM      30.19R
BAUDETTE       SUNNY     40  37  89 CALM      30.17R
6HR MIN TEMP:  34; 6HR MAX TEMP:  42;

WASKISH        SUNNY     41  39  93 CALM      30.19R
CROOKSTON      SUNNY     45  39  81 SE5       30.18S
$$
  *****  WEATHER ACROSS CENTRAL AND WEST MINNESOTA  *****

CITY           SKY/WX    TMP DP  RH WIND       PRES   REMARKS
BEMIDJI        SUNNY     38  37  94 CALM      30.19R
PARK RAPIDS    SUNNY     42  38  85 CALM      30.19R
6HR MIN TEMP:  38; 6HR MAX TEMP:  47;

WADENA         SUNNY     41  39  93 CALM      30.19R
DETROIT LAKES  SUNNY     45  41  87 CALM      30.20R
MOORHEAD       SUNNY     45  41  87 CALM      30.20R
FERGUS FALLS   SUNNY     46  39  76 CALM      30.21R
ELBOW LAKE     FAIR      47  43  87 CALM      30.19R
6HR MIN TEMP:  42; 6HR MAX TEMP:  52;

MORRIS MN      SUNNY     45  39  81 CALM      30.18R
STAPLES        SUNNY     39  37  93 CALM      30.19R
WHEATON        SUNNY     45  41  87 CALM      30.21R
$$
  *****  WEATHER ELSEWHERE ACROSS MINNESOTA  *****

CITY           SKY/WX    TMP DP  RH WIND       PRES   REMARKS
DULUTH         SUNNY     47  34  60 CALM      30.19R
6HR MIN TEMP:  37; 6HR MAX TEMP:  50;

INTRNTL FALLS  SUNNY     37  34  89 CALM      30.18R
6HR MIN TEMP:  30; 6HR MAX TEMP:  37;

ELY            SUNNY     34  30  86 CALM      30.19R
CLOQUET        SUNNY     39  34  81 CALM      30.19R
BRAINERD       SUNNY     40  38  93 CALM      30.20R
6HR MIN TEMP:  34; 6HR MAX TEMP:  44;

HIBBING        SUNNY     37  32  82 CALM      30.19R
6HR MIN TEMP:  28; 6HR MAX TEMP:  37;

ALEXANDRIA     SUNNY     46  42  86 CALM      30.20R
6HR MIN TEMP:  41; 6HR MAX TEMP:  50;

SAINT CLOUD    SUNNY     44  41  89 CALM      30.20R
6HR MIN TEMP:  37; 6HR MAX TEMP:  47;

MINNEAPOLIS    SUNNY     51  39  63 CALM      30.19R
6HR MIN TEMP:  46; 6HR MAX TEMP:  56;

$$

  *****  WEATHER ACROSS SOUTH DAKOTA  *****

CITY           SKY/WX    TMP DP  RH WIND       PRES   REMARKS
SIOUX FALLS    PTCLDY    44  41  89 CALM      30.19R
6HR MIN TEMP:  39; 6HR MAX TEMP:  54;

BROOKINGS      CLEAR     43  37  81 CALM      30.21R
WATERTOWN      CLEAR     42  37  82 N3        30.19R
6HR MIN TEMP:  40; 6HR MAX TEMP:  51;

HURON          CLEAR     45  41  86 CALM      30.18R
6HR MIN TEMP:  42; 6HR MAX TEMP:  52;

SISSETON         N/A     45  40  82 SW3       30.18S
ABERDEEN       CLEAR     49  39  68 E3        30.17S
6HR MIN TEMP:  40; 6HR MAX TEMP:  51;

MITCHELL       CLEAR     46  42  86 S3        30.19R
PIERRE         PTCLDY    42  37  82 NE5       30.15S
6HR MIN TEMP:  38; 6HR MAX TEMP:  51;

MOBRIDGE       CLEAR     45  41  86 CALM      30.14R
RAPID CITY     CLOUDY    48  45  89 E5        30.09F
6HR MIN TEMP:  48; 6HR MAX TEMP:  50;

$$

  *****  SOME WEATHER IN NEARBY STATES *****

CITY           SKY/WX    TMP DP  RH WIND       PRES   REMARKS
GLASGOW MT     CLEAR     44  33  65 E12       30.05S
6HR MIN TEMP:  44; 6HR MAX TEMP:  50;

GREAT FALLS MT CLEAR     41  36  82 NE6       29.95S
6HR MIN TEMP:  41; 6HR MAX TEMP:  54;

CHEYENNE WY    FOG       42  42 100 SE14      30.03S VSB 1/4
6HR MIN TEMP:  42; 6HR MAX TEMP:  45; 6HR PCP:  0.02;

SCOTTSBLUFF NE CLOUDY    49  45  86 E14       30.07R
6HR MIN TEMP:  49; 6HR MAX TEMP:  52;

OMAHA NE       MOCLDY    50  44  80 CALM      30.21S
6HR MIN TEMP:  47; 6HR MAX TEMP:  60;

DES MOINES IA  MOSUNNY   53  42  66 NW5       30.19R
6HR MIN TEMP:  50; 6HR MAX TEMP:  56;

DAVENPORT IA   SUNNY     49  40  71 W3        30.17R
6HR MIN TEMP:  44; 6HR MAX TEMP:  51;

CHICAGO IL     SUNNY     51  39  63 NE6       30.15R
6HR MIN TEMP:  47; 6HR MAX TEMP:  59;

EAU CLAIRE WI  SUNNY     45  40  82 NE5       30.18R
6HR MIN TEMP:  38; 6HR MAX TEMP:  46;

LA CROSSE WI   SUNNY     48  42  80 SE5       30.17R
6HR MIN TEMP:  43; 6HR MAX TEMP:  52;

$$

  *****  SOME NATIONAL WEATHER *****

CITY           SKY/WX    TMP DP  RH WIND       PRES   REMARKS



USA.gov is the U.S. government's official web portal to all federal, state and local government web resources and services.